Flag for U.S.A. Weather past 2 weeks in Pensacola, Florida, U.S.A.

Now
73 °F

Clear.


Feels Like: 70 °F
Forecast: 71 / 92 °F
Wind: 3 mph from North

Location: Pensacola Regional Airport

Current Time: Aug 31, 2015 at 4:46:12 AM

Latest Report: Aug 31, 2015 at 3:53 AM


Visibility: 10 mi

Pressure: 30.00 "Hg

Humidity: 94%

Dew point: 71 °F

Location of PensacolaLocation

Historic Weather in Pensacola — Graph

°F

Pensacola temperature yesterday

Maximum temperature yesterday: 87 °F (at 12:53 PM)
Minimum temperature yesterday: 71 °F (at 4:53 AM)
Average temperature yesterday: 79 °F

Past Weeks' High & Low Weather Summary

 TemperatureHumidityPressure
High95 °F (Aug 23, 4:53 PM)97% (Aug 17, 8:02 AM)30.11 "Hg (Aug 17, 8:02 AM)
Low65 °F (Aug 27, 4:53 AM)35% (Aug 26, 2:53 PM)29.90 "Hg (Aug 24, 6:53 PM)
Average80 °F75%29.99 "Hg
* Reported Aug 16 2:53 AM — Aug 31 2:53 AM, Pensacola, Weather by CustomWeather, © 2015

Note: Actual official high and low records may vary slightly from our data, if they occured in-between our weather recording intervals... More about our weather records

Advertising

Pensacola weather history for previous 24 hours

 ConditionsComfort  
Time TempWeatherWind HumidityBarometerVisibility
2:53 AM
Mon, Aug 31
74 °FClear.5 mph91%30.00 "Hg10 mi
1:53 AM75 °FClear.5 mph88%30.00 "Hg10 mi
12:53 AM76 °FClear.3 mph85%30.02 "Hg10 mi
11:53 PM
Sun, Aug 30
77 °FPassing clouds.3 mph82%30.03 "Hg10 mi
10:53 PM76 °FPassing clouds.No wind85%30.02 "Hg10 mi
9:53 PM78 °FPartly cloudy.No wind79%30.02 "Hg10 mi
8:53 PM78 °FClear.5 mph82%30.01 "Hg10 mi
7:53 PM80 °FClear.3 mph76%29.97 "Hg10 mi
6:53 PM84 °FSunny.6 mph65%29.97 "Hg10 mi
5:53 PM86 °FScattered clouds.7 mph61%29.97 "Hg10 mi
4:53 PM85 °FSunny.6 mph63%29.98 "Hg10 mi
3:53 PM86 °FSunny.10 mph63%30.00 "Hg10 mi
2:53 PM86 °FScattered clouds.9 mph65%30.01 "Hg10 mi
1:53 PM84 °FOvercast.7 mph63%30.03 "Hg10 mi
12:53 PM87 °FScattered clouds.7 mph59%30.05 "Hg10 mi
11:53 AM86 °FScattered clouds.6 mph63%30.06 "Hg10 mi
10:53 AM85 °FScattered clouds.7 mph68%30.07 "Hg10 mi
9:53 AM82 °FSunny.3 mph70%30.06 "Hg10 mi
8:53 AM78 °FSunny.5 mph82%30.05 "Hg10 mi
7:53 AM76 °FSunny.No wind82%30.05 "Hg10 mi
6:53 AM71 °FSunny.7 mph93%30.03 "Hg10 mi
5:53 AM71 °FClear.7 mph90%30.02 "Hg10 mi
4:53 AM71 °FClear.6 mph90%30.02 "Hg10 mi
Weather by CustomWeather, © 2015

See weather overviewHow to use our weather pages